GW6941 Weather Reports


time (UTC)temp
F
wind
direction
speed
knots
gust
knots
rain 1hr
in
rain 24hr
in
rain mn
in
humidity
%
barometer
mb
20260506014946 63 327 0.0 0.0 0.00 0.00 0.00 68 1017.8
20260506014442 63 327 0.0 0.9 0.00 0.00 0.00 67 1017.5
20260506013939 63 330 1.7 1.7 0.00 0.00 0.00 68 1017.6
20260506013437 63 324 0.0 0.0 0.00 0.00 0.00 70 1017.5
20260506012933 63 324 0.0 0.9 0.00 0.00 0.00 69 1017.4
20260506012430 63 346 0.0 0.9 0.00 0.00 0.00 69 1017.4
20260506011927 63 295 0.9 0.9 0.00 0.00 0.00 69 1017.5
20260506011424 63 295 0.0 0.0 0.00 0.00 0.00 68 1017.5
20260506010921 63 295 0.0 0.0 0.00 0.00 0.00 68 1017.4
20260506010420 63 295 0.0 0.9 0.00 0.00 0.00 67 1017.6
20260506005915 63 295 0.0 0.0 0.00 0.00 0.00 69 1017.5
20260506005414 63 295 0.0 0.0 0.00 0.00 0.00 69 1017.4
20260506004908 62 296 0.0 0.0 0.00 0.00 0.00 71 1017.4
20260506004407 63 296 0.0 0.0 0.00 0.00 0.00 70 1017.5
20260506003902 62 294 0.0 0.9 0.00 0.00 0.00 69 1017.5
20260506003359 62 303 0.0 0.0 0.00 0.00 0.00 70 1017.5
20260506002855 63 291 0.0 0.9 0.00 0.00 0.00 73 1017.6
20260506002351 62 290 0.0 0.0 0.00 0.00 0.00 68 1017.6
20260506001847 62 290 0.0 0.0 0.00 0.00 0.00 68 1017.8
20260506001344 63 290 0.9 0.9 0.00 0.00 0.00 71 1017.8
20260506000841 63 291 0.0 0.0 0.00 0.00 0.00 69 1017.8
20260506000340 63 323 0.0 0.9 0.00 0.00 0.00 71 1017.8
20260505235836 63 282 0.0 0.0 0.00 0.00 0.00 69 1017.8
20260505235333 63 282 0.0 1.7 0.00 0.00 0.00 68 1018.0
20260505234830 63 341 0.0 0.9 0.00 0.00 0.00 70 1018.1
20260505234328 63 25 0.0 0.0 0.00 0.00 0.00 70 1017.9
20260505233825 63 14 0.0 0.0 0.00 0.00 0.00 71 1018.0
20260505233322 63 18 0.9 0.9 0.00 0.00 0.00 67 1018.2
20260505232819 63 290 0.0 1.7 0.00 0.00 0.00 70 1017.9
20260505232317 63 3 0.9 0.9 0.00 0.00 0.00 70 1018.1
20260505231814 63 351 0.9 0.9 0.00 0.00 0.00 70 1018.2
20260505231312 63 73 0.0 0.9 0.00 0.00 0.00 68 1018.0
20260505230810 62 80 0.0 1.7 0.00 0.00 0.00 69 1018.0
20260505230307 63 276 1.7 1.7 0.00 0.00 0.00 68 1018.1
20260505225803 63 291 0.0 1.7 0.00 0.00 0.00 70 1018.2
20260505225300 63 246 0.9 0.9 0.00 0.00 0.00 69 1018.1
20260505224755 62 292 0.9 0.9 0.00 0.00 0.00 68 1018.2
20260505224253 63 306 1.7 2.6 0.00 0.00 0.00 68 1018.1
20260505223750 63 272 0.9 0.9 0.00 0.00 0.00 71 1018.1
20260505223247 63 270 1.7 1.7 0.00 0.00 0.00 69 1018.2
20260505222743 63 262 0.9 0.9 0.00 0.00 0.00 69 1018.3
20260505222239 62 272 0.0 1.7 0.00 0.00 0.00 71 1018.4
20260505221736 63 216 1.7 1.7 0.00 0.00 0.00 69 1018.4
20260505221233 63 224 0.0 2.6 0.00 0.00 0.00 70 1018.5
20260505220730 63 281 0.0 0.9 0.00 0.00 0.00 69 1018.1
20260505220227 63 290 0.9 2.6 0.00 0.00 0.00 69 1018.4
20260505215725 63 353 0.0 0.0 0.00 0.00 0.00 71 1018.4
20260505215223 63 214 1.7 1.7 0.00 0.00 0.00 69 1018.5
20260505214720 62 300 0.0 0.9 0.00 0.00 0.00 73 1018.4
20260505214218 62 300 1.7 2.6 0.00 0.00 0.00 69 1018.4
20260505213715 62 212 0.0 0.9 0.00 0.00 0.00 70 1018.4
20260505213212 62 278 0.9 1.7 0.00 0.00 0.00 70 1018.4
20260505212708 62 284 0.0 0.9 0.00 0.00 0.00 71 1018.5
20260505212206 62 280 0.0 0.0 0.00 0.00 0.00 72 1018.6
20260505211702 62 282 0.9 0.9 0.00 0.00 0.00 70 1018.5
20260505211159 61 33 0.0 0.9 0.00 0.00 0.00 75 1018.6
20260505210656 61 32 1.7 1.7 0.00 0.00 0.00 71 1018.5
20260505210153 61 358 0.0 0.0 0.00 0.00 0.00 73 1018.7
20260505205650 61 354 0.9 0.9 0.00 0.00 0.00 72 1018.7
20260505205148 61 305 2.6 2.6 0.00 0.00 0.00 71 1018.7
20260505204644 61 292 1.7 2.6 0.00 0.00 0.00 71 1018.8
20260505204143 62 333 0.9 2.6 0.00 0.00 0.00 73 1018.6
20260505203640 62 129 0.0 0.9 0.00 0.00 0.00 72 1018.5
20260505203136 62 127 0.9 1.7 0.00 0.00 0.00 72 1018.7
20260505202632 62 73 0.9 0.9 0.00 0.00 0.00 73 1018.8
20260505202128 61 31 0.0 1.7 0.00 0.00 0.00 72 1018.8
20260505201625 62 43 3.5 3.5 0.00 0.00 0.00 70 1019.0
20260505201123 62 348 0.0 0.9 0.00 0.00 0.00 71 1019.1
20260505200621 62 310 0.0 0.9 0.00 0.00 0.00 70 1019.1
20260505200118 61 240 0.0 0.9 0.00 0.00 0.00 72 1018.9
20260505195614 61 268 0.9 1.7 0.00 0.00 0.00 72 1019.0
20260505195111 61 240 1.7 1.7 0.00 0.00 0.00 72 1018.8
20260505194608 61 22 0.0 0.0 0.00 0.00 0.00 74 1019.1
20260505194104 61 16 1.7 1.7 0.00 0.00 0.00 71 1019.0
20260505193601 61 246 0.9 1.7 0.00 0.00 0.00 73 1019.1
20260505193058 61 239 1.7 1.7 0.00 0.00 0.00 73 1018.9
20260505192557 61 336 0.0 0.9 0.00 0.00 0.00 71 1019.2
20260505192054 61 207 2.6 2.6 0.00 0.00 0.00 70 1019.1
20260505191552 61 193 1.7 1.7 0.00 0.00 0.00 71 1019.0
20260505191049 61 305 0.0 1.7 0.00 0.00 0.00 71 1018.9
20260505190544 60 39 0.0 0.9 0.00 0.00 0.00 72 1019.0
20260505190040 60 34 0.0 0.9 0.00 0.00 0.00 72 1018.9
20260505185537 60 12 0.0 0.0 0.00 0.00 0.00 74 1019.1
20260505185033 59 267 0.9 0.9 0.00 0.00 0.00 76 1019.1
20260505184530 59 307 0.0 1.7 0.00 0.00 0.00 74 1019.0
20260505184027 59 293 0.0 1.7 0.00 0.00 0.00 76 1019.1
20260505183524 59 315 0.9 1.7 0.00 0.00 0.00 75 1019.2
20260505183021 58 217 0.9 1.7 0.00 0.00 0.00 75 1018.9
20260505182517 59 138 0.0 2.6 0.00 0.00 0.00 75 1019.1
20260505182014 59 173 0.9 1.7 0.00 0.00 0.00 75 1018.9
20260505181511 58 236 0.0 0.0 0.00 0.00 0.00 77 1018.9
20260505181008 58 268 0.9 1.7 0.00 0.00 0.00 76 1019.0
20260505180504 58 203 0.0 1.7 0.00 0.00 0.00 78 1019.0
20260505180002 58 270 0.0 1.7 0.00 0.00 0.00 79 1019.0
20260505175457 58 177 0.9 2.6 0.00 0.00 0.00 79 1019.0
20260505174954 57 234 0.9 2.6 0.00 0.00 0.00 79 1019.1
20260505174451 57 145 1.7 2.6 0.00 0.00 0.00 79 1019.0
20260505173947 57 171 0.9 2.6 0.00 0.00 0.00 79 1018.9
20260505173443 57 142 2.6 2.6 0.00 0.00 0.00 79 1018.9
20260505172940 57 226 0.9 2.6 0.00 0.00 0.00 78 1018.9
20260505172439 57 236 0.0 1.7 0.00 0.00 0.00 80 1018.8
20260505171938 58 227 1.7 2.6 0.00 0.00 0.00 80 1018.7
20260505171435 58 281 0.0 1.7 0.00 0.00 0.00 81 1018.8
20260505170932 57 240 0.0 0.9 0.00 0.00 0.00 80 1018.7
20260505170428 57 257 0.9 2.6 0.00 0.00 0.00 81 1018.8
20260505165924 56 199 1.7 2.6 0.00 0.00 0.00 81 1018.7
20260505165420 56 162 1.7 2.6 0.00 0.00 0.00 82 1018.6
20260505164915 56 273 3.5 3.5 0.00 0.00 0.00 82 1018.8
20260505164413 56 217 0.0 0.9 0.00 0.00 0.00 84 1018.7
20260505163911 56 161 0.0 0.9 0.00 0.00 0.00 83 1018.7
20260505163409 56 268 0.9 0.9 0.00 0.00 0.00 84 1018.8
20260505162908 56 209 1.7 2.6 0.00 0.00 0.00 83 1018.6
20260505162403 56 160 0.9 2.6 0.00 0.00 0.00 87 1018.5
20260505161900 55 170 1.7 1.7 0.00 0.00 0.00 85 1018.6
20260505161357 55 195 0.0 0.9 0.00 0.00 0.00 86 1018.5
20260505160854 55 218 0.9 1.7 0.00 0.00 0.00 87 1018.5
20260505160353 54 229 0.9 0.9 0.00 0.00 0.00 88 1018.5
20260505153331 53 203 0.0 1.7 0.00 0.00 0.00 90 1018.5
20260505152828 53 154 1.7 2.6 0.00 0.00 0.00 90 1018.5
20260505152325 53 214 0.9 0.9 0.00 0.00 0.00 90 1018.5
20260505151825 53 231 0.9 0.9 0.00 0.00 0.00 91 1018.6
20260505151322 53 239 0.9 0.9 0.00 0.00 0.00 91 1018.5
20260505150819 53 232 0.9 0.9 0.00 0.00 0.00 92 1018.6
20260505150317 53 216 0.9 0.9 0.00 0.00 0.00 92 1018.3
20260505140246 52 265 0.0 0.0 0.00 0.00 0.00 90 1017.9
20260505130210 53 221 0.0 1.7 0.00 0.00 0.00 87 1017.4
20260505124700 53 178 0.9 1.7 0.00 0.00 0.00 86 1017.3
20260505124157 53 181 1.7 1.7 0.00 0.00 0.00 87 1017.2
20260505123653 53 225 0.0 0.9 0.00 0.00 0.00 86 1017.1
20260505123150 53 212 0.9 0.9 0.00 0.00 0.00 86 1017.4
20260505122646 53 179 0.0 1.7 0.00 0.00 0.00 86 1017.5
20260505122143 53 160 0.0 1.7 0.00 0.00 0.00 86 1017.3
20260505121640 53 225 1.7 1.7 0.00 0.00 0.00 86 1017.4
20260505121137 53 231 3.5 3.5 0.00 0.00 0.00 86 1017.1
20260505120634 53 195 0.9 2.6 0.00 0.00 0.00 86 1017.1
20260505120130 53 274 0.0 2.6 0.00 0.00 0.00 86 1017.3
20260505115629 53 180 1.7 2.6 0.00 0.00 0.00 86 1017.3
20260505115127 53 224 0.0 0.9 0.00 0.00 0.00 86 1017.1
20260505114624 53 216 0.0 3.5 0.00 0.00 0.00 86 1017.2
20260505114120 53 223 1.7 1.7 0.00 0.00 0.00 86 1017.3
20260505113617 53 242 0.0 0.9 0.00 0.00 0.00 87 1017.1
20260505113114 53 255 0.0 0.0 0.00 0.00 0.00 87 1017.3
20260505112610 53 279 0.9 1.7 0.00 0.00 0.00 87 1017.0
20260505112109 53 223 0.0 2.6 0.00 0.00 0.00 86 1017.0
20260505111607 53 208 0.9 2.6 0.00 0.00 0.00 86 1017.0
20260505111103 53 227 2.6 5.2 0.00 0.00 0.00 86 1017.1
20260505110600 53 219 0.9 0.9 0.00 0.00 0.00 86 1017.0
20260505102033 53 208 1.7 2.6 0.00 0.00 0.00 86 1016.7
20260505101531 53 224 1.7 1.7 0.00 0.00 0.00 86 1016.7
20260505101027 53 167 0.9 1.7 0.00 0.00 0.00 85 1016.6
20260505100524 53 230 1.7 2.6 0.00 0.00 0.00 85 1016.8
20260505100021 53 225 3.5 3.5 0.00 0.00 0.00 85 1016.6
20260505095517 53 189 0.9 1.7 0.00 0.00 0.00 86 1016.7
20260505095014 53 187 0.0 1.7 0.00 0.00 0.00 85 1016.6
20260505094510 53 223 0.9 2.6 0.00 0.00 0.00 86 1016.8
20260505094007 53 236 0.9 1.7 0.00 0.00 0.00 86 1016.5
20260505093503 53 188 0.9 1.7 0.00 0.00 0.00 86 1016.5
20260505093000 53 171 4.3 5.2 0.00 0.00 0.00 86 1016.5
20260505092458 53 217 0.0 0.9 0.00 0.00 0.00 86 1016.4
20260505091955 53 216 0.0 0.9 0.00 0.00 0.00 87 1016.3
20260505091453 52 246 0.0 1.7 0.00 0.00 0.00 87 1016.4
20260505090951 52 232 0.9 0.9 0.00 0.00 0.00 87 1016.5
20260505090449 52 198 0.9 1.7 0.00 0.00 0.00 87 1016.4
20260505085945 52 166 0.0 0.9 0.00 0.00 0.00 87 1016.4
20260505085443 53 171 1.7 2.6 0.00 0.00 0.00 86 1016.2
20260505084942 53 221 1.7 2.6 0.00 0.00 0.00 86 1016.3
20260505084440 53 201 1.7 1.7 0.00 0.00 0.00 85 1016.3
20260505083937 53 188 0.9 1.7 0.00 0.00 0.00 85 1016.2
20260505083434 53 206 1.7 3.5 0.00 0.00 0.00 85 1016.2
20260505082930 53 166 1.7 3.5 0.00 0.00 0.00 85 1016.3
20260505082426 53 221 3.5 3.5 0.00 0.00 0.00 84 1016.3
20260505081923 53 244 0.0 1.7 0.00 0.00 0.00 84 1016.1
20260505081420 53 213 0.9 1.7 0.00 0.00 0.00 84 1016.1
20260505080917 54 214 0.9 2.6 0.00 0.00 0.00 84 1016.0
20260505080413 54 228 0.9 1.7 0.00 0.00 0.00 83 1016.2
20260505075908 54 223 3.5 5.2 0.00 0.00 0.00 83 1016.0
20260505075405 54 252 0.9 3.5 0.00 0.00 0.00 83 1015.8
20260505074903 54 171 3.5 6.1 0.00 0.00 0.00 83 1016.1
20260505074400 54 213 4.3 9.6 0.00 0.00 0.00 83 1015.9
20260505073857 54 233 0.9 2.6 0.00 0.00 0.00 83 1015.9
20260505073355 54 210 3.5 5.2 0.00 0.00 0.00 83 1015.8
20260505072852 54 189 2.6 3.5 0.00 0.00 0.00 83 1015.8
20260505072348 54 182 2.6 6.1 0.00 0.00 0.00 83 1015.5
20260505071844 54 186 1.7 2.6 0.00 0.00 0.00 82 1015.6
20260505071340 54 216 0.9 5.2 0.00 0.00 0.00 82 1015.3
20260505070839 55 225 2.6 7.8 0.00 0.00 0.00 81 1015.3
20260505070335 55 231 1.7 5.2 0.00 0.00 0.00 81 1015.3
20260505065830 55 216 1.7 2.6 0.00 0.00 0.00 81 1015.1
20260505065327 55 221 7.8 11.3 0.00 0.00 0.00 80 1015.3
20260505064824 55 202 5.2 7.0 0.00 0.00 0.00 80 1015.2
20260505064321 55 187 4.3 7.8 0.00 0.00 0.00 80 1015.2
20260505063819 55 225 0.9 7.0 0.00 0.00 0.00 79 1015.0
20260505063315 55 169 4.3 6.1 0.00 0.00 0.00 79 1015.2
20260505062812 55 254 3.5 5.2 0.00 0.00 0.00 79 1014.9
20260505062309 56 169 4.3 6.1 0.00 0.00 0.00 78 1015.0
20260505061806 56 201 4.3 6.1 0.00 0.00 0.00 78 1015.0
20260505061304 56 180 3.5 6.1 0.00 0.00 0.00 78 1015.0
20260505060801 56 227 5.2 7.0 0.00 0.00 0.00 78 1014.8
20260505060258 56 233 1.7 3.5 0.00 0.00 0.00 77 1014.9
20260505055753 57 234 3.5 5.2 0.00 0.00 0.00 77 1014.8
20260505055250 57 215 4.3 5.2 0.00 0.00 0.00 77 1014.8
20260505054747 57 229 0.9 6.1 0.00 0.00 0.00 77 1014.9
20260505054245 57 158 2.6 3.5 0.00 0.00 0.00 76 1014.8
20260505053743 58 231 0.9 5.2 0.00 0.00 0.00 76 1014.8
20260505053239 58 220 0.9 2.6 0.00 0.00 0.00 76 1014.7
20260505052737 59 229 4.3 5.2 0.00 0.00 0.00 75 1014.7
20260505052233 59 191 1.7 9.6 0.00 0.00 0.00 75 1014.7
20260505051730 59 243 2.6 6.1 0.00 0.00 0.00 75 1014.8
20260505051229 60 217 0.9 5.2 0.00 0.00 0.00 75 1014.6
20260505050726 60 190 2.6 7.0 0.00 0.00 0.00 74 1014.6
20260505050224 60 190 3.5 7.0 0.00 0.00 0.00 73 1014.6
20260505041654 63 222 4.3 6.1 0.00 0.00 0.00 70 1013.8
20260505041151 64 208 2.6 5.2 0.00 0.00 0.00 69 1013.7
20260505040648 64 221 0.9 6.1 0.00 0.00 0.00 69 1013.7
20260505040145 64 208 4.3 7.8 0.00 0.00 0.00 67 1013.5
20260505035642 65 223 4.3 8.7 0.00 0.00 0.00 66 1013.4
20260505035138 65 205 3.5 3.5 0.00 0.00 0.00 67 1013.2
20260505034635 65 247 3.5 6.1 0.00 0.00 0.00 67 1013.2
20260505034132 66 208 2.6 6.1 0.00 0.00 0.00 67 1013.2
20260505033628 66 220 2.6 6.1 0.00 0.00 0.00 66 1013.2
20260505033127 66 208 0.0 3.5 0.00 0.00 0.00 67 1013.0
20260505032624 67 224 2.6 7.0 0.00 0.00 0.00 67 1013.2
20260505032121 67 213 2.6 6.1 0.00 0.00 0.00 67 1013.0
20260505031618 67 207 0.0 6.1 0.00 0.00 0.00 68 1013.0
20260505031114 67 229 3.5 5.2 0.00 0.00 0.00 69 1012.9
20260505030611 66 225 1.7 2.6 0.00 0.00 0.00 70 1012.9
20260505030106 66 189 0.0 0.9 0.00 0.00 0.00 72 1012.6
20260505025602 67 187 0.9 1.7 0.00 0.00 0.00 71 1012.9
20260505025102 67 187 1.7 1.7 0.00 0.00 0.00 69 1012.9
20260505024559 68 169 0.9 2.6 0.00 0.00 0.00 67 1012.7
20260505024056 68 170 0.9 3.5 0.00 0.00 0.00 66 1012.9
20260505023553 69 200 2.6 5.2 0.00 0.00 0.00 65 1012.7
20260505023051 69 192 0.9 0.9 0.00 0.00 0.00 66 1012.7
20260505022548 69 219 2.6 5.2 0.00 0.00 0.00 63 1012.6
20260505022045 69 224 1.7 5.2 0.00 0.00 0.00 64 1012.8
20260505021542 70 170 1.7 6.1 0.00 0.00 0.00 63 1012.9
20260505021038 70 160 1.7 3.5 0.00 0.00 0.00 63 1012.8
20260505020538 70 225 1.7 5.2 0.00 0.00 0.00 62 1012.6
20260505020035 70 198 3.5 3.5 0.00 0.00 0.00 62 1012.7
20260505015533 70 224 1.7 3.5 0.00 0.00 0.00 63 1012.7